Location: Johnson City
(36.3130°N, 82.3540°W)
Time: 04:45:20
(UTC-05:00)

Tiangong 2 - Visible Passes

Search period start: 17 February 2019 00:00
Search period end: 27 February 2019 00:00
Orbit: 381 x 390 km, 42.8° (Epoch: 16 February)

Date Brightness Start Highest point End Pass type
(mag) Time Alt. Az. Time Alt. Az. Time Alt. Az.
17 Feb 2.0 19:09:26 10° NW 19:12:22 34° NNE 19:13:43 23° ENE visible
18 Feb 1.2 19:46:51 10° WNW 19:49:45 73° WNW 19:49:45 73° WNW visible
19 Feb 1.4 18:47:39 10° WNW 18:50:45 51° NNE 18:53:38 11° E visible
19 Feb 3.9 20:24:43 10° W 20:25:54 18° WSW 20:25:54 18° WSW visible
20 Feb 1.8 19:25:11 10° WNW 19:28:15 48° SSW 19:29:55 23° SE visible
21 Feb 3.9 20:03:53 10° WSW 20:05:25 13° SW 20:06:20 12° SSW visible
22 Feb 3.2 19:03:42 10° W 19:06:21 24° SW 19:08:59 10° SSE visible
